contact:dominique.lefevre@mio.osupytheas.fr, maurice.libes@osupytheas.fr, didier.mallarino@osupytheas.fr
Project:EMSO http://www.emso-fr.org/EMSO-France
Depth: 2436.0 m
Title:EMSO Ligure Ouest : Data MII capteur CSTAR
DateTime,Latitude,Longitude,Instrument_Serial,Reference_Counts,Signal_Counts,Corrected_Signal_raw_counts,Calculated_Beam_c_inverse_meters,Internal_thermistor_counts
DateTime,Latitude,Longitude,Instrument_Serial,Reference_Counts,Signal_Counts,Corrected_Signal_raw_counts,Calculated_Beam_c_inverse_meters,Internal_thermistor_counts
2022-07-02T00:01:50,42.805,6.029,CST-1368DR,4678,5026,11447,01.242,551
2022-07-02T00:04:51,42.805,6.029,CST-1368DR,4678,5037,11472,01.234,551
2022-07-02T00:07:53,42.805,6.029,CST-1368DR,4678,5043,11487,01.228,551
2022-07-02T00:10:54,42.805,6.029,CST-1368DR,4678,5040,11480,01.231,551
2022-07-02T00:13:56,42.805,6.029,CST-1368DR,4678,5037,11473,01.233,551
2022-07-02T00:16:58,42.805,6.029,CST-1368DR,4678,5037,11473,01.233,550
2022-07-02T00:19:59,42.805,6.029,CST-1368DR,4678,5041,11483,01.230,551
2022-07-02T00:23:01,42.805,6.029,CST-1368DR,4678,5044,11488,01.228,551
2022-07-02T00:26:02,42.805,6.029,CST-1368DR,4678,5037,11473,01.233,551
2022-07-02T00:29:04,42.805,6.029,CST-1368DR,4678,5038,11475,01.233,551
2022-07-02T00:32:05,42.805,6.029,CST-1368DR,4678,5033,11464,01.236,551
2022-07-02T00:35:07,42.805,6.029,CST-1368DR,4678,5041,11482,01.230,551
2022-07-02T00:38:09,42.805,6.029,CST-1368DR,4678,5042,11484,01.229,551
2022-07-02T00:41:10,42.805,6.029,CST-1368DR,4678,5040,11480,01.231,551
2022-07-02T00:44:12,42.805,6.029,CST-1368DR,4678,5039,11478,01.231,551
2022-07-02T00:47:13,42.805,6.029,CST-1368DR,4678,5031,11459,01.238,551
2022-07-02T00:50:15,42.805,6.029,CST-1368DR,4678,5031,11459,01.238,551
2022-07-02T00:53:16,42.805,6.029,CST-1368DR,4678,5047,11496,01.225,551
2022-07-02T00:56:18,42.805,6.029,CST-1368DR,4678,5021,11435,01.246,551
2022-07-02T00:59:20,42.805,6.029,CST-1368DR,4678,5045,11490,01.227,551
2022-07-02T01:02:21,42.805,6.029,CST-1368DR,4678,5039,11477,01.232,551
2022-07-02T01:05:23,42.805,6.029,CST-1368DR,4678,5043,11486,01.229,551
2022-07-02T01:08:24,42.805,6.029,CST-1368DR,4678,5046,11493,01.226,551
2022-07-02T01:11:26,42.805,6.029,CST-1368DR,4678,5028,11453,01.240,551
2022-07-02T01:14:28,42.805,6.029,CST-1368DR,4678,5036,11471,01.234,551
2022-07-02T01:17:29,42.805,6.029,CST-1368DR,4678,5048,11497,01.225,551
2022-07-02T01:20:31,42.805,6.029,CST-1368DR,4678,5030,11457,01.239,551
2022-07-02T01:23:32,42.805,6.029,CST-1368DR,4678,5039,11477,01.232,551
2022-07-02T01:26:34,42.805,6.029,CST-1368DR,4678,5037,11472,01.234,551
2022-07-02T01:29:35,42.805,6.029,CST-1368DR,4678,5050,11503,01.223,551
2022-07-02T01:32:37,42.805,6.029,CST-1368DR,4678,5041,11481,01.230,551
2022-07-02T01:35:39,42.805,6.029,CST-1368DR,4678,5037,11472,01.234,551
2022-07-02T01:38:40,42.805,6.029,CST-1368DR,4678,5032,11462,01.237,551
2022-07-02T01:41:42,42.805,6.029,CST-1368DR,4678,5037,11473,01.233,551
2022-07-02T01:44:43,42.805,6.029,CST-1368DR,4678,5053,11508,01.221,551
2022-07-02T01:47:45,42.805,6.029,CST-1368DR,4678,5044,11488,01.228,551
2022-07-02T01:50:46,42.805,6.029,CST-1368DR,4678,5047,11495,01.226,551
2022-07-02T01:53:48,42.805,6.029,CST-1368DR,4678,5044,11488,01.228,551
2022-07-02T01:56:50,42.805,6.029,CST-1368DR,4678,5041,11481,01.230,551
2022-07-02T01:59:51,42.805,6.029,CST-1368DR,4678,5034,11467,01.235,551
2022-07-02T02:02:53,42.805,6.029,CST-1368DR,4678,5036,11469,01.235,551
2022-07-02T02:05:54,42.805,6.029,CST-1368DR,4678,5044,11488,01.228,551
2022-07-02T02:08:56,42.805,6.029,CST-1368DR,4678,5042,11484,01.229,551
2022-07-02T02:11:58,42.805,6.029,CST-1368DR,4678,5057,11517,01.218,551
2022-07-02T02:14:59,42.805,6.029,CST-1368DR,4678,5025,11445,01.243,551
2022-07-02T02:18:01,42.805,6.029,CST-1368DR,4678,5036,11471,01.234,551
2022-07-02T02:21:02,42.805,6.029,CST-1368DR,4678,5040,11480,01.231,551
2022-07-02T02:24:04,42.805,6.029,CST-1368DR,4678,5043,11486,01.229,551
2022-07-02T02:27:05,42.805,6.029,CST-1368DR,4678,5044,11488,01.228,551
2022-07-02T02:30:07,42.805,6.029,CST-1368DR,4678,5029,11455,01.239,551
2022-07-02T02:33:09,42.805,6.029,CST-1368DR,4678,5050,11501,01.223,551
2022-07-02T02:36:10,42.805,6.029,CST-1368DR,4678,5045,11492,01.227,551
2022-07-02T02:39:12,42.805,6.029,CST-1368DR,4678,5047,11495,01.226,551
2022-07-02T02:42:13,42.805,6.029,CST-1368DR,4678,5034,11465,01.236,551
2022-07-02T02:45:15,42.805,6.029,CST-1368DR,4678,5035,11469,01.235,551
2022-07-02T02:48:16,42.805,6.029,CST-1368DR,4678,5039,11476,01.232,551
2022-07-02T02:51:18,42.805,6.029,CST-1368DR,4678,5029,11454,01.240,551
2022-07-02T02:54:20,42.805,6.029,CST-1368DR,4678,5014,11421,01.251,551
2022-07-02T02:57:21,42.805,6.029,CST-1368DR,4678,5016,11424,01.250,551
2022-07-02T03:00:23,42.805,6.029,CST-1368DR,4678,5012,11416,01.253,551
2022-07-02T03:03:24,42.805,6.029,CST-1368DR,4678,5024,11442,01.244,551
2022-07-02T03:06:26,42.805,6.029,CST-1368DR,4678,5035,11467,01.235,551
2022-07-02T03:09:28,42.805,6.029,CST-1368DR,4678,5034,11466,01.236,551
2022-07-02T03:12:29,42.805,6.029,CST-1368DR,4678,5035,11469,01.235,550
2022-07-02T03:15:31,42.805,6.029,CST-1368DR,4678,5021,11435,01.246,551
2022-07-02T03:18:32,42.805,6.029,CST-1368DR,4678,5038,11475,01.233,551
2022-07-02T03:21:34,42.805,6.029,CST-1368DR,4678,5043,11486,01.229,551
2022-07-02T03:24:35,42.805,6.029,CST-1368DR,4678,5029,11455,01.239,551
2022-07-02T03:27:37,42.805,6.029,CST-1368DR,4678,5040,11480,01.231,551
2022-07-02T03:30:39,42.805,6.029,CST-1368DR,4678,5023,11442,01.244,551
2022-07-02T03:33:40,42.805,6.029,CST-1368DR,4678,5035,11468,01.235,551
2022-07-02T03:36:42,42.805,6.029,CST-1368DR,4678,5040,11480,01.231,551
2022-07-02T03:39:43,42.805,6.029,CST-1368DR,4678,5038,11475,01.233,551
2022-07-02T03:42:45,42.805,6.029,CST-1368DR,4678,5048,11498,01.224,551
2022-07-02T03:45:46,42.805,6.029,CST-1368DR,4678,5031,11459,01.238,551
2022-07-02T03:48:48,42.805,6.029,CST-1368DR,4678,5031,11459,01.238,551
2022-07-02T03:51:50,42.805,6.029,CST-1368DR,4678,5025,11445,01.243,551
2022-07-02T03:54:51,42.805,6.029,CST-1368DR,4678,5040,11480,01.231,551
2022-07-02T03:57:53,42.805,6.029,CST-1368DR,4678,5036,11471,01.234,551
2022-07-02T04:00:54,42.805,6.029,CST-1368DR,4678,5034,11467,01.235,551
2022-07-02T04:03:56,42.805,6.029,CST-1368DR,4678,5031,11458,01.238,551
2022-07-02T04:06:58,42.805,6.029,CST-1368DR,4678,5040,11480,01.231,551
2022-07-02T04:09:59,42.805,6.029,CST-1368DR,4678,5041,11482,01.230,551
2022-07-02T04:13:01,42.805,6.029,CST-1368DR,4678,5046,11492,01.227,551
2022-07-02T04:16:02,42.805,6.029,CST-1368DR,4678,5022,11439,01.245,551
2022-07-02T04:19:04,42.805,6.029,CST-1368DR,4678,5022,11439,01.245,551
2022-07-02T04:22:05,42.805,6.029,CST-1368DR,4678,5031,11460,01.238,551
2022-07-02T04:25:07,42.805,6.029,CST-1368DR,4678,5046,11493,01.226,551
2022-07-02T04:28:09,42.805,6.029,CST-1368DR,4678,5025,11446,01.243,551
2022-07-02T04:31:10,42.805,6.029,CST-1368DR,4678,5043,11485,01.229,551
2022-07-02T04:34:12,42.805,6.029,CST-1368DR,4678,5023,11440,01.245,551
2022-07-02T04:37:13,42.805,6.029,CST-1368DR,4678,5045,11492,01.227,551
2022-07-02T04:40:15,42.805,6.029,CST-1368DR,4678,5054,11512,01.220,551
2022-07-02T04:43:16,42.805,6.029,CST-1368DR,4678,5018,11428,01.249,551
2022-07-02T04:46:18,42.805,6.029,CST-1368DR,4678,5044,11489,01.228,551
2022-07-02T04:49:20,42.805,6.029,CST-1368DR,4678,5023,11440,01.245,551
2022-07-02T04:52:21,42.805,6.029,CST-1368DR,4678,5033,11463,01.237,551
2022-07-02T04:55:23,42.805,6.029,CST-1368DR,4678,5033,11463,01.237,551
2022-07-02T04:58:24,42.805,6.029,CST-1368DR,4678,5028,11451,01.241,551
2022-07-02T05:01:26,42.805,6.029,CST-1368DR,4678,5017,11426,01.250,551
2022-07-02T05:04:28,42.805,6.029,CST-1368DR,4678,5043,11485,01.229,551
2022-07-02T05:07:29,42.805,6.029,CST-1368DR,4678,5042,11484,01.229,551
2022-07-02T05:10:31,42.805,6.029,CST-1368DR,4678,5034,11466,01.236,551
2022-07-02T05:13:32,42.805,6.029,CST-1368DR,4678,5020,11435,01.246,551
2022-07-02T05:16:34,42.805,6.029,CST-1368DR,4678,5034,11465,01.236,551
2022-07-02T05:19:35,42.805,6.029,CST-1368DR,4678,5036,11471,01.234,551
2022-07-02T05:22:37,42.805,6.029,CST-1368DR,4678,5026,11447,01.242,551
2022-07-02T05:25:39,42.805,6.029,CST-1368DR,4678,5036,11471,01.234,551
2022-07-02T05:28:40,42.805,6.029,CST-1368DR,4678,5039,11476,01.232,551
2022-07-02T05:31:42,42.805,6.029,CST-1368DR,4678,5028,11452,01.241,551
2022-07-02T05:34:43,42.805,6.029,CST-1368DR,4678,5024,11443,01.244,551
2022-07-02T05:37:45,42.805,6.029,CST-1368DR,4678,5033,11464,01.236,551
2022-07-02T05:40:47,42.805,6.029,CST-1368DR,4677,5025,11448,01.242,551
2022-07-02T05:43:48,42.805,6.029,CST-1368DR,4678,5038,11475,01.233,551
2022-07-02T05:46:50,42.805,6.029,CST-1368DR,4678,5038,11475,01.233,551
2022-07-02T05:49:51,42.805,6.029,CST-1368DR,4678,5042,11485,01.229,551
2022-07-02T05:52:53,42.805,6.029,CST-1368DR,4678,5037,11473,01.233,551
2022-07-02T05:55:54,42.805,6.029,CST-1368DR,4678,5050,11502,01.223,551
2022-07-02T05:58:56,42.805,6.029,CST-1368DR,4677,5030,11458,01.238,551
2022-07-02T06:01:58,42.805,6.029,CST-1368DR,4678,5033,11463,01.237,551
2022-07-02T06:04:59,42.805,6.029,CST-1368DR,4677,5029,11458,01.238,551
2022-07-02T06:08:01,42.805,6.029,CST-1368DR,4678,5040,11480,01.231,551
2022-07-02T06:11:02,42.805,6.029,CST-1368DR,4678,5040,11480,01.231,551
2022-07-02T06:14:04,42.805,6.029,CST-1368DR,4678,5036,11470,01.234,551
2022-07-02T06:17:05,42.805,6.029,CST-1368DR,4678,5041,11481,01.230,551
2022-07-02T06:20:07,42.805,6.029,CST-1368DR,4678,5032,11461,01.237,551
2022-07-02T06:23:09,42.805,6.029,CST-1368DR,4678,5049,11500,01.224,551
2022-07-02T06:26:10,42.805,6.029,CST-1368DR,4678,5039,11477,01.232,551
2022-07-02T06:29:12,42.805,6.029,CST-1368DR,4677,5040,11483,01.230,551
2022-07-02T06:32:13,42.805,6.029,CST-1368DR,4678,5040,11480,01.231,551
2022-07-02T06:35:15,42.805,6.029,CST-1368DR,4678,5043,11486,01.229,551
2022-07-02T06:38:17,42.805,6.029,CST-1368DR,4677,5034,11469,01.235,551
2022-07-02T06:41:18,42.805,6.029,CST-1368DR,4677,5036,11473,01.233,551
2022-07-02T06:44:20,42.805,6.029,CST-1368DR,4677,5039,11479,01.231,551
2022-07-02T06:47:21,42.805,6.029,CST-1368DR,4677,5019,11435,01.246,551
2022-07-02T06:50:23,42.805,6.029,CST-1368DR,4677,4996,11381,01.265,551
2022-07-02T06:53:24,42.805,6.029,CST-1368DR,4677,5027,11453,01.240,551
2022-07-02T06:56:26,42.805,6.029,CST-1368DR,4678,5051,11505,01.222,551
2022-07-02T06:59:28,42.805,6.029,CST-1368DR,4677,5005,11402,01.258,551
2022-07-02T07:02:29,42.805,6.029,CST-1368DR,4677,5022,11440,01.245,551
2022-07-02T07:05:31,42.805,6.029,CST-1368DR,4677,5031,11462,01.237,551
2022-07-02T07:08:32,42.805,6.029,CST-1368DR,4678,5043,11485,01.229,551
2022-07-02T07:11:34,42.805,6.029,CST-1368DR,4677,5018,11432,01.248,551
2022-07-02T07:14:35,42.805,6.029,CST-1368DR,4677,5032,11464,01.236,551
2022-07-02T07:17:37,42.805,6.029,CST-1368DR,4677,5024,11446,01.243,551
2022-07-02T07:20:39,42.805,6.029,CST-1368DR,4677,5046,11495,01.226,551
2022-07-02T07:23:40,42.805,6.029,CST-1368DR,4677,4983,11352,01.276,551
2022-07-02T07:26:42,42.805,6.029,CST-1368DR,4677,5024,11446,01.243,551
2022-07-02T07:29:43,42.805,6.029,CST-1368DR,4677,5004,11400,01.259,551
2022-07-02T07:32:45,42.805,6.029,CST-1368DR,4677,4992,11372,01.269,551
2022-07-02T07:35:47,42.805,6.029,CST-1368DR,4677,5008,11408,01.256,551
2022-07-02T07:38:48,42.805,6.029,CST-1368DR,4677,5005,11402,01.258,551
2022-07-02T07:41:50,42.805,6.029,CST-1368DR,4677,5020,11437,01.246,551
2022-07-02T07:44:51,42.805,6.029,CST-1368DR,4677,5010,11413,01.254,551
2022-07-02T07:47:53,42.805,6.029,CST-1368DR,4677,5016,11426,01.250,551
2022-07-02T07:50:54,42.805,6.029,CST-1368DR,4677,5001,11392,01.262,551
2022-07-02T07:53:56,42.805,6.029,CST-1368DR,4677,5005,11403,01.258,551
2022-07-02T07:56:58,42.805,6.029,CST-1368DR,4677,5007,11406,01.257,551
2022-07-02T07:59:59,42.805,6.029,CST-1368DR,4677,5003,11397,01.260,551
2022-07-02T08:03:01,42.805,6.029,CST-1368DR,4677,4989,11366,01.271,551
2022-07-02T08:06:02,42.805,6.029,CST-1368DR,4677,5002,11395,01.260,551
2022-07-02T08:09:04,42.805,6.029,CST-1368DR,4677,4987,11361,01.272,551
2022-07-02T08:12:06,42.805,6.029,CST-1368DR,4677,4976,11335,01.282,551
2022-07-02T08:15:07,42.805,6.029,CST-1368DR,4677,4972,11328,01.284,551
2022-07-02T08:18:09,42.805,6.029,CST-1368DR,4677,4980,11344,01.278,551
2022-07-02T08:21:10,42.805,6.029,CST-1368DR,4677,4987,11361,01.272,551
2022-07-02T08:24:12,42.805,6.029,CST-1368DR,4677,5002,11395,01.260,551
2022-07-02T08:27:13,42.805,6.029,CST-1368DR,4677,5023,11443,01.244,551
2022-07-02T08:30:15,42.805,6.029,CST-1368DR,4677,4985,11357,01.274,551
2022-07-02T08:33:17,42.805,6.029,CST-1368DR,4677,4996,11382,01.265,551
2022-07-02T08:36:18,42.805,6.029,CST-1368DR,4677,4996,11381,01.265,551
2022-07-02T08:39:20,42.805,6.029,CST-1368DR,4677,5005,11402,01.258,551
2022-07-02T08:42:21,42.805,6.029,CST-1368DR,4677,4995,11378,01.266,551
2022-07-02T08:45:23,42.805,6.029,CST-1368DR,4677,4998,11386,01.264,551
2022-07-02T08:48:24,42.805,6.029,CST-1368DR,4677,4977,11338,01.281,551
2022-07-02T08:51:26,42.805,6.029,CST-1368DR,4677,4990,11369,01.270,551
2022-07-02T08:54:28,42.805,6.029,CST-1368DR,4677,5018,11431,01.248,551
2022-07-02T08:57:29,42.805,6.029,CST-1368DR,4677,4997,11383,01.265,551
2022-07-02T09:00:31,42.805,6.029,CST-1368DR,4677,4983,11352,01.276,551
2022-07-02T09:03:32,42.805,6.029,CST-1368DR,4677,4997,11383,01.265,551
2022-07-02T09:06:34,42.805,6.029,CST-1368DR,4677,5007,11406,01.257,551
2022-07-02T09:09:36,42.805,6.029,CST-1368DR,4677,5011,11416,01.253,551
2022-07-02T09:12:37,42.805,6.029,CST-1368DR,4677,5006,11404,01.257,551
2022-07-02T09:15:39,42.805,6.029,CST-1368DR,4677,4995,11379,01.266,551
2022-07-02T09:18:40,42.805,6.029,CST-1368DR,4677,5011,11415,01.253,551
2022-07-02T09:21:42,42.805,6.029,CST-1368DR,4678,5074,11556,01.204,551
2022-07-02T09:24:43,42.805,6.029,CST-1368DR,4677,5070,11550,01.206,551
2022-07-02T09:27:45,42.805,6.029,CST-1368DR,4677,5064,11536,01.211,551
2022-07-02T09:30:47,42.805,6.029,CST-1368DR,4678,5074,11557,01.204,551
2022-07-02T09:33:48,42.805,6.029,CST-1368DR,4678,5081,11573,01.198,551
2022-07-02T09:36:50,42.805,6.029,CST-1368DR,4677,5065,11539,01.210,551
2022-07-02T09:39:51,42.805,6.029,CST-1368DR,4677,5073,11556,01.204,551
2022-07-02T09:42:53,42.805,6.029,CST-1368DR,4678,5075,11559,01.203,551
2022-07-02T09:45:54,42.805,6.029,CST-1368DR,4678,5078,11566,01.201,551
2022-07-02T09:48:56,42.805,6.029,CST-1368DR,4677,5071,11552,01.206,551
2022-07-02T09:51:58,42.805,6.029,CST-1368DR,4677,5076,11563,01.202,551
2022-07-02T09:54:59,42.805,6.029,CST-1368DR,4677,5076,11565,01.201,551
2022-07-02T09:58:01,42.805,6.029,CST-1368DR,4677,5077,11566,01.201,551
2022-07-02T10:01:02,42.805,6.029,CST-1368DR,4677,5080,11573,01.198,551
2022-07-02T10:04:04,42.805,6.029,CST-1368DR,4677,5082,11578,01.197,551
2022-07-02T10:07:06,42.805,6.029,CST-1368DR,4678,5079,11568,01.200,551
2022-07-02T10:10:07,42.805,6.029,CST-1368DR,4677,5078,11568,01.200,551
2022-07-02T10:13:09,42.805,6.029,CST-1368DR,4677,5061,11529,01.214,551
2022-07-02T10:16:10,42.805,6.029,CST-1368DR,4678,5070,11547,01.207,551
2022-07-02T10:19:12,42.805,6.029,CST-1368DR,4677,5074,11558,01.204,551
2022-07-02T10:22:13,42.805,6.029,CST-1368DR,4677,5075,11561,01.203,551
2022-07-02T10:25:15,42.805,6.029,CST-1368DR,4677,5074,11558,01.204,551
2022-07-02T10:28:17,42.805,6.029,CST-1368DR,4677,5076,11564,01.202,551
2022-07-02T10:31:18,42.805,6.029,CST-1368DR,4677,5076,11563,01.202,551
2022-07-02T10:34:20,42.805,6.029,CST-1368DR,4678,5087,11586,01.194,551
2022-07-02T10:37:21,42.805,6.029,CST-1368DR,4677,5087,11589,01.193,551
2022-07-02T10:40:23,42.805,6.029,CST-1368DR,4677,5092,11600,01.189,551
2022-07-02T10:43:24,42.805,6.029,CST-1368DR,4677,5084,11581,01.196,551
2022-07-02T10:46:26,42.805,6.029,CST-1368DR,4677,5091,11598,01.190,551
2022-07-02T10:49:28,42.805,6.029,CST-1368DR,4677,5085,11585,01.194,551
2022-07-02T10:52:29,42.805,6.029,CST-1368DR,4677,5081,11576,01.197,551
2022-07-02T10:55:31,42.805,6.029,CST-1368DR,4677,5060,11526,01.215,551
2022-07-02T10:58:32,42.805,6.029,CST-1368DR,4677,5068,11545,01.208,551
2022-07-02T11:01:34,42.805,6.029,CST-1368DR,4677,5068,11546,01.208,551
2022-07-02T11:04:36,42.805,6.029,CST-1368DR,4677,5060,11528,01.214,551
2022-07-02T11:07:37,42.805,6.029,CST-1368DR,4677,5096,11609,01.186,551
2022-07-02T11:10:39,42.805,6.029,CST-1368DR,4677,5092,11600,01.189,551
2022-07-02T11:13:40,42.805,6.029,CST-1368DR,4677,5099,11616,01.184,551
2022-07-02T11:16:42,42.805,6.029,CST-1368DR,4677,5095,11608,01.186,551
2022-07-02T11:19:43,42.805,6.029,CST-1368DR,4677,5091,11598,01.190,551
2022-07-02T11:22:45,42.805,6.029,CST-1368DR,4677,5094,11606,01.187,551
2022-07-02T11:25:47,42.805,6.029,CST-1368DR,4677,5098,11613,01.185,551
2022-07-02T11:28:48,42.805,6.029,CST-1368DR,4677,5097,11612,01.185,551
2022-07-02T11:31:50,42.805,6.029,CST-1368DR,4677,5094,11605,01.187,551
2022-07-02T11:34:51,42.805,6.029,CST-1368DR,4677,5094,11606,01.187,551
2022-07-02T11:37:53,42.805,6.029,CST-1368DR,4677,5097,11612,01.185,551
2022-07-02T11:40:54,42.805,6.029,CST-1368DR,4677,5097,11611,01.185,551
2022-07-02T11:43:56,42.805,6.029,CST-1368DR,4677,5095,11608,01.186,551
2022-07-02T11:46:58,42.805,6.029,CST-1368DR,4678,5101,11618,01.183,551
2022-07-02T11:49:59,42.805,6.029,CST-1368DR,4677,5097,11611,01.185,551
2022-07-02T11:53:01,42.805,6.029,CST-1368DR,4677,5100,11619,01.183,551
2022-07-02T11:56:02,42.805,6.029,CST-1368DR,4677,5094,11604,01.188,551
2022-07-02T11:59:04,42.805,6.029,CST-1368DR,4677,5095,11606,01.187,551
2022-07-02T12:02:06,42.805,6.029,CST-1368DR,4677,5096,11610,01.186,551
2022-07-02T12:05:07,42.805,6.029,CST-1368DR,4677,5096,11610,01.186,551
2022-07-02T12:08:09,42.805,6.029,CST-1368DR,4677,5091,11597,01.190,551
2022-07-02T12:11:10,42.805,6.029,CST-1368DR,4677,5095,11606,01.187,551
2022-07-02T12:14:12,42.805,6.029,CST-1368DR,4677,5097,11611,01.185,551
2022-07-02T12:17:13,42.805,6.029,CST-1368DR,4677,5099,11616,01.184,550
2022-07-02T12:20:15,42.805,6.029,CST-1368DR,4677,5097,11611,01.185,551
2022-07-02T12:23:17,42.805,6.029,CST-1368DR,4677,5097,11612,01.185,551
2022-07-02T12:26:18,42.805,6.029,CST-1368DR,4677,5093,11602,01.188,551
2022-07-02T12:29:20,42.805,6.029,CST-1368DR,4677,5096,11609,01.186,551
2022-07-02T12:32:21,42.805,6.029,CST-1368DR,4677,5098,11614,01.184,551
2022-07-02T12:35:23,42.805,6.029,CST-1368DR,4677,5094,11604,01.188,551
2022-07-02T12:38:24,42.805,6.029,CST-1368DR,4677,5099,11617,01.183,551
2022-07-02T12:41:26,42.805,6.029,CST-1368DR,4677,5097,11611,01.185,551
2022-07-02T12:44:28,42.805,6.029,CST-1368DR,4677,5097,11612,01.185,551
2022-07-02T12:47:29,42.805,6.029,CST-1368DR,4677,5105,11629,01.179,551
2022-07-02T12:50:31,42.805,6.029,CST-1368DR,4677,5096,11610,01.186,551
2022-07-02T12:53:32,42.805,6.029,CST-1368DR,4677,5099,11617,01.183,551
2022-07-02T12:56:34,42.805,6.029,CST-1368DR,4677,5104,11627,01.180,551
2022-07-02T12:59:36,42.805,6.029,CST-1368DR,4677,5096,11610,01.186,551
2022-07-02T13:02:37,42.805,6.029,CST-1368DR,4677,5094,11604,01.188,551
2022-07-02T13:05:39,42.805,6.029,CST-1368DR,4677,5098,11615,01.184,551
2022-07-02T13:08:40,42.805,6.029,CST-1368DR,4677,5097,11612,01.185,551
2022-07-02T13:11:42,42.805,6.029,CST-1368DR,4677,5095,11606,01.187,551
2022-07-02T13:14:43,42.805,6.029,CST-1368DR,4677,5093,11603,01.188,551
2022-07-02T13:17:45,42.805,6.029,CST-1368DR,4677,5085,11585,01.194,551
2022-07-02T13:20:47,42.805,6.029,CST-1368DR,4677,5097,11611,01.185,551
2022-07-02T13:23:48,42.805,6.029,CST-1368DR,4677,5097,11611,01.185,551
2022-07-02T13:26:50,42.805,6.029,CST-1368DR,4677,5093,11603,01.188,551
2022-07-02T13:29:51,42.805,6.029,CST-1368DR,4677,5097,11612,01.185,551
2022-07-02T13:32:53,42.805,6.029,CST-1368DR,4677,5093,11603,01.188,551
2022-07-02T13:35:54,42.805,6.029,CST-1368DR,4677,5092,11600,01.189,551
2022-07-02T13:38:56,42.805,6.029,CST-1368DR,4677,5087,11588,01.193,551
2022-07-02T13:41:58,42.805,6.029,CST-1368DR,4677,5099,11617,01.183,551
2022-07-02T13:44:59,42.805,6.029,CST-1368DR,4677,5093,11602,01.188,551
2022-07-02T13:48:01,42.805,6.029,CST-1368DR,4677,5095,11608,01.186,551
2022-07-02T13:51:02,42.805,6.029,CST-1368DR,4677,5096,11610,01.186,551
2022-07-02T13:54:04,42.805,6.029,CST-1368DR,4677,5091,11599,01.190,551
2022-07-02T13:57:06,42.805,6.029,CST-1368DR,4677,5090,11596,01.191,551
2022-07-02T14:00:07,42.805,6.029,CST-1368DR,4677,5091,11597,01.190,551
2022-07-02T14:03:09,42.805,6.029,CST-1368DR,4677,5091,11597,01.190,551
2022-07-02T14:06:10,42.805,6.029,CST-1368DR,4677,5090,11596,01.191,551
2022-07-02T14:09:12,42.805,6.029,CST-1368DR,4677,5096,11610,01.186,551
2022-07-02T14:12:13,42.805,6.029,CST-1368DR,4677,5097,11612,01.185,551
2022-07-02T14:15:15,42.805,6.029,CST-1368DR,4677,5094,11605,01.187,551
2022-07-02T14:18:17,42.805,6.029,CST-1368DR,4677,5090,11595,01.191,551
2022-07-02T14:21:18,42.805,6.029,CST-1368DR,4677,5088,11591,01.192,551
2022-07-02T14:24:20,42.805,6.029,CST-1368DR,4677,5091,11598,01.190,551
2022-07-02T14:27:21,42.805,6.029,CST-1368DR,4677,5105,11629,01.179,551
2022-07-02T14:30:23,42.805,6.029,CST-1368DR,4677,5097,11612,01.185,551
2022-07-02T14:33:24,42.805,6.029,CST-1368DR,4677,5106,11633,01.178,551
2022-07-02T14:36:26,42.805,6.029,CST-1368DR,4677,5111,11644,01.174,551
2022-07-02T14:39:28,42.805,6.029,CST-1368DR,4677,5097,11612,01.185,551
2022-07-02T14:42:29,42.805,6.029,CST-1368DR,4677,5101,11622,01.182,551
2022-07-02T14:45:31,42.805,6.029,CST-1368DR,4677,5099,11616,01.184,551
2022-07-02T14:48:32,42.805,6.029,CST-1368DR,4677,5094,11606,01.187,551
2022-07-02T14:51:34,42.805,6.029,CST-1368DR,4677,5102,11622,01.182,551
2022-07-02T14:54:36,42.805,6.029,CST-1368DR,4677,5090,11596,01.191,551
2022-07-02T14:57:37,42.805,6.029,CST-1368DR,4677,5094,11606,01.187,551
2022-07-02T15:00:39,42.805,6.029,CST-1368DR,4677,5096,11610,01.186,551
2022-07-02T15:03:40,42.805,6.029,CST-1368DR,4677,5096,11609,01.186,551
2022-07-02T15:06:42,42.805,6.029,CST-1368DR,4677,5105,11629,01.179,551
2022-07-02T15:09:43,42.805,6.029,CST-1368DR,4677,5105,11631,01.178,551
2022-07-02T15:12:45,42.805,6.029,CST-1368DR,4677,5090,11596,01.191,551
2022-07-02T15:15:47,42.805,6.029,CST-1368DR,4677,5091,11597,01.190,551
2022-07-02T15:18:48,42.805,6.029,CST-1368DR,4677,5080,11572,01.199,551
2022-07-02T15:21:50,42.805,6.029,CST-1368DR,4677,5130,11686,01.160,551
2022-07-02T15:24:51,42.805,6.029,CST-1368DR,4677,5131,11688,01.159,551
2022-07-02T15:27:53,42.805,6.029,CST-1368DR,4677,5134,11697,01.156,551
2022-07-02T15:30:54,42.805,6.029,CST-1368DR,4677,5123,11671,01.165,551
2022-07-02T15:33:56,42.805,6.029,CST-1368DR,4677,5122,11668,01.166,551
2022-07-02T15:36:58,42.805,6.029,CST-1368DR,4677,5137,11702,01.154,551
2022-07-02T15:39:59,42.805,6.029,CST-1368DR,4677,5122,11668,01.166,551
2022-07-02T15:43:01,42.805,6.029,CST-1368DR,4677,5115,11652,01.171,551
2022-07-02T15:46:02,42.805,6.029,CST-1368DR,4677,5125,11676,01.163,551
2022-07-02T15:49:04,42.805,6.029,CST-1368DR,4677,5149,11730,01.145,551
2022-07-02T15:52:06,42.805,6.029,CST-1368DR,4677,5103,11626,01.180,551
2022-07-02T15:55:07,42.805,6.029,CST-1368DR,4677,5122,11669,01.165,551
2022-07-02T15:58:09,42.805,6.029,CST-1368DR,4677,5123,11672,01.164,551
2022-07-02T16:01:10,42.805,6.029,CST-1368DR,4677,5120,11663,01.167,551
2022-07-02T16:04:12,42.805,6.029,CST-1368DR,4677,5125,11676,01.163,551
2022-07-02T16:07:13,42.805,6.029,CST-1368DR,4677,5133,11693,01.157,551
2022-07-02T16:10:15,42.805,6.029,CST-1368DR,4677,5108,11637,01.176,551
2022-07-02T16:13:17,42.805,6.029,CST-1368DR,4677,5123,11671,01.165,551
2022-07-02T16:16:18,42.805,6.029,CST-1368DR,4677,5116,11656,01.170,551
2022-07-02T16:19:20,42.805,6.029,CST-1368DR,4677,5123,11672,01.164,551
2022-07-02T16:22:21,42.805,6.029,CST-1368DR,4677,5132,11690,01.158,551
2022-07-02T16:25:23,42.805,6.029,CST-1368DR,4677,5132,11690,01.158,551
2022-07-02T16:28:24,42.805,6.029,CST-1368DR,4677,5124,11673,01.164,551
2022-07-02T16:31:26,42.805,6.029,CST-1368DR,4677,5118,11659,01.169,551
2022-07-02T16:34:28,42.805,6.029,CST-1368DR,4677,5113,11648,01.173,551
2022-07-02T16:37:29,42.805,6.029,CST-1368DR,4677,5115,11652,01.171,551